Home   Weather   Cayenne   Past weeks

Flag for French Guiana Past Weather in Cayenne, French Guiana — Yesterday and Last 2 Weeks

Now
81 °F

More clouds than sun.


Feels Like: 87 °F
Forecast: 74 / 82 °F
Wind: 2 mph from North

Location: Cayenne / Rochambeau

Current Time: Jan 17, 2017 at 10:11:48 am

Latest Report: Jan 17, 2017 at 9:30 am


Visibility: N/A

Pressure: 29.86 "Hg

Humidity: 89%

Dew Point: 77 °F

Location of CayenneLocation

Past Weather in Cayenne — Graph

°F

Cayenne Temperature Yesterday

Maximum temperature yesterday: 82 °F (at 2:00 pm)
Minimum temperature yesterday: 73 °F (at 6:30 am)
Average temperature yesterday: 77 °F

High & Low Weather Summary for the Past Weeks

 TemperatureHumidityPressure
High88 °F (Jan 10, 1:00 pm)100% (Jan 2, 9:30 am)29.95 "Hg (Jan 2, 9:30 am)
Low70 °F (Jan 10, 4:00 am)55% (Jan 10, 3:00 pm)29.77 "Hg (Jan 14, 3:30 pm)
Average78 °F89%29.86 "Hg
* Reported Jan 2 9:00 am — Jan 17 9:00 am, Cayenne, Weather by CustomWeather, © 2017

Note: Actual official high and low records may vary slightly from our data, if they occured in-between our weather recording intervals... More about our weather records

Advertising

Cayenne Weather History for the Previous 24 Hours

Scroll right to see more
 ConditionsComfort  
Time TempWeatherWind HumidityBarometerVisibility
9:00 am
Tue, Jan 17
79 °FCloudy.2 mph94%29.86 "HgN/A
8:30 am77 °FLight rain. Broken clouds.3 mph94%29.86 "HgN/A
8:00 am77 °FHeavy rain. Fog.5 mph94%29.86 "Hg1 mi
7:30 am77 °FHeavy rain. Partly sunny.1 mph94%29.83 "HgN/A
7:00 am77 °FMostly cloudy.1 mph94%29.83 "HgN/A
6:30 am77 °FPassing clouds.No wind100%29.80 "HgN/A
6:00 am77 °FLight rain. Partly cloudy.2 mph94%29.80 "HgN/A
5:30 am75 °FPassing clouds.No wind100%29.80 "HgN/A
5:00 am75 °FPassing clouds.3 mph100%29.80 "HgN/A
4:30 am75 °FMostly cloudy.No wind100%29.80 "HgN/A
4:00 am75 °FPassing clouds.No wind100%29.80 "HgN/A
3:30 am75 °FPartly cloudy.1 mph100%29.80 "HgN/A
3:00 am75 °FPassing clouds.No wind100%29.80 "HgN/A
2:30 am75 °FMostly cloudy.3 mph100%29.80 "HgN/A
2:00 am75 °FPassing clouds.2 mph100%29.83 "HgN/A
1:30 am75 °FMostly cloudy.No wind100%29.83 "HgN/A
1:00 am75 °FMostly cloudy.2 mph100%29.83 "HgN/A
12:30 am75 °FPartly cloudy.No wind100%29.83 "HgN/A
12:00 am75 °FPassing clouds.No wind100%29.86 "HgN/A
11:30 pm
Mon, Jan 16
75 °FPartly cloudy.1 mph100%29.86 "HgN/A
11:00 pm75 °FMostly cloudy.2 mph100%29.86 "HgN/A
10:30 pm77 °FPassing clouds.3 mph94%29.86 "HgN/A
10:00 pm77 °FPartly cloudy.No wind94%29.83 "HgN/A
9:30 pm77 °FPassing clouds.No wind94%29.83 "HgN/A
9:00 pm77 °FMostly cloudy.1 mph94%29.83 "HgN/A
8:30 pm77 °FMostly cloudy.No wind94%29.83 "HgN/A
8:00 pm79 °FClear.3 mph89%29.83 "HgN/A
7:30 pm79 °FOvercast.5 mph89%29.80 "HgN/A
7:00 pm79 °FClear.3 mph89%29.80 "HgN/A
6:30 pm79 °FClear.6 mph89%29.80 "HgN/A
6:00 pm81 °FMostly cloudy.7 mph84%29.80 "HgN/A
5:30 pm81 °FMore clouds than sun.7 mph84%29.80 "HgN/A
5:00 pm82 °FPartly sunny.8 mph74%29.80 "HgN/A
4:30 pm82 °FMostly cloudy.9 mph74%29.80 "HgN/A
4:00 pm82 °FPartly sunny.9 mph74%29.80 "HgN/A
3:30 pm82 °FOvercast.8 mph74%29.80 "HgN/A
3:00 pm82 °FPartly sunny.8 mph74%29.80 "HgN/A
2:30 pm82 °FPartly sunny.9 mph74%29.80 "HgN/A
2:00 pm82 °FBroken clouds.5 mph79%29.83 "HgN/A
1:30 pm81 °FPartly sunny.2 mph84%29.83 "HgN/A
1:00 pm81 °FBroken clouds.3 mph84%29.86 "HgN/A
12:30 pm79 °FPartly sunny.1 mph84%29.89 "HgN/A
12:00 pm79 °FPartly sunny.1 mph84%29.89 "HgN/A
11:30 am77 °FBroken clouds.No wind94%29.89 "HgN/A
11:00 am75 °FMostly cloudy.3 mph94%29.92 "HgN/A
10:30 am75 °FClear.2 mph94%29.92 "HgN/A
10:00 am75 °FLight rain. Low clouds.6 mph100%29.89 "HgN/A
Weather by CustomWeather, © 2017

See weather overviewHow to use our weather pages